Location: Unspecified
(0.0000°N, 0.0000°E)
Time: 16:46:43
(UTC+00:00)

Vanguard 2 Rocket - All Passes

Search period start: 12 April 2021 00:00
Search period end: 22 April 2021 00:00
Orbit: 554 x 3326 km, 32.9° (Epoch: 11 April)

Date Brightness Start Highest point End Pass type
(mag) Time Alt. Az. Time Alt. Az. Time Alt. Az.
12 Apr - 00:03:40 10° NW 00:09:24 71° NNE 00:13:28 10° ESE night (unlit)
12 Apr - 09:05:14 10° SSW 09:14:22 25° SE 09:27:17 10° E daylight
12 Apr - 11:16:50 10° SW 11:31:20 72° SE 11:51:42 10° ENE daylight
12 Apr - 13:32:45 10° WSW 13:50:17 55° NNW 14:09:27 10° NE daylight
12 Apr - 15:56:28 10° WNW 16:11:12 24° NNW 16:24:01 10° NNE daylight
12 Apr - 18:29:11 10° NNW 18:33:33 11° N 18:37:26 10° N visible
12 Apr - 20:49:30 10° NNW 20:53:40 13° N 20:57:05 10° NE visible
12 Apr - 23:03:11 10° NW 23:09:45 39° NNE 23:14:05 10° E night (unlit)
13 Apr - 01:19:09 10° W 01:22:37 20° SW 01:25:39 10° SSE night (unlit)
13 Apr - 08:07:40 10° S 08:13:10 15° SE 08:20:07 10° ESE daylight
13 Apr - 10:17:14 10° SW 10:29:34 53° SE 10:48:14 10° ENE daylight
13 Apr - 12:31:16 10° WSW 12:47:31 70° NW 13:07:57 10° NE daylight
13 Apr - 14:51:28 10° W 15:07:56 32° NNW 15:23:39 10° NNE daylight
13 Apr - 17:21:31 10° NW 17:30:25 15° NNW 17:37:57 10° NNE daylight
13 Apr - 19:47:37 10° NNW 19:52:03 12° N 19:55:47 10° NNE visible
13 Apr - 22:02:30 10° NNW 22:09:36 27° NNE 22:14:19 10° E visible
14 Apr - 00:17:49 10° WNW 00:23:22 48° SW 00:27:21 10° SE night (unlit)
14 Apr - 09:18:14 10° SSW 09:28:19 37° SE 09:43:46 10° E daylight
14 Apr - 11:30:40 10° SW 11:45:07 87° NW 12:05:45 10° NE daylight
14 Apr - 13:48:03 10° W 14:04:44 41° NNW 14:22:46 10° NE daylight
14 Apr - 16:14:22 10° WNW 16:26:54 19° NNW 16:37:48 10° NNE daylight
14 Apr - 18:43:59 10° NNW 18:49:44 13° N 18:54:35 10° NNE visible
14 Apr - 21:01:26 10° NNW 21:08:55 21° NNE 21:14:06 10° ENE visible
14 Apr - 23:16:43 10° NW 23:24:00 83° NE 23:28:33 10° ESE night (unlit)
15 Apr - 08:19:57 10° S 08:27:27 23° SE 08:38:11 10° E daylight
15 Apr - 10:30:46 10° SW 10:43:15 73° SE 11:02:51 10° ENE daylight
15 Apr - 12:45:57 10° WSW 13:01:45 53° NNW 13:21:21 10° NE daylight
15 Apr - 15:08:29 10° WNW 15:23:15 25° NNW 15:37:11 10° NNE daylight
15 Apr - 17:38:36 10° NNW 17:46:43 14° N 17:53:33 10° NNE daylight
15 Apr - 19:59:47 10° NNW 20:07:38 18° NNE 20:13:22 10° NE visible
15 Apr - 22:15:33 10° NW 22:24:11 49° NNE 22:29:21 10° ESE visible
16 Apr - 00:32:57 10° W 00:37:08 21° SW 00:40:26 10° S night (unlit)
16 Apr - 07:23:26 10° SSE 07:26:44 12° SE 07:30:37 10° ESE daylight
16 Apr - 09:31:30 10° SW 09:42:00 52° SE 09:59:10 10° ENE daylight
16 Apr - 11:44:53 10° WSW 11:59:08 67° NW 12:19:23 10° NE daylight
16 Apr - 14:04:10 10° W 14:19:41 31° NNW 14:36:08 10° NNE daylight
16 Apr - 16:32:17 10° NW 16:43:06 17° N 16:52:29 10° NNE daylight
16 Apr - 18:57:18 10° NNW 19:05:42 16° N 19:12:08 10° NE visible
16 Apr - 21:14:10 10° NW 21:23:50 35° NNE 21:29:44 10° E visible
16 Apr - 23:30:58 10° WNW 23:37:53 47° SW 23:42:20 10° SE night (unlit)
17 Apr - 08:32:48 10° SSW 08:41:17 34° SE 08:54:41 10° E daylight
17 Apr - 10:44:39 10° WSW 10:57:04 85° NW 11:16:51 10° NE daylight
17 Apr - 13:01:18 10° W 13:16:24 39° NNW 13:34:40 10° NE daylight
17 Apr - 15:26:08 10° NW 15:39:10 20° NNW 15:51:16 10° NNE daylight
17 Apr - 17:53:42 10° NNW 18:03:00 16° N 18:10:27 10° NE daylight
17 Apr - 20:12:26 10° NNW 20:22:54 27° NNE 20:29:37 10° ENE visible
17 Apr - 22:29:12 10° NW 22:38:23 89° SW 22:43:39 10° SE visible
18 Apr - 07:34:56 10° S 07:40:53 20° SE 07:49:15 10° E daylight
18 Apr - 09:45:04 10° SW 09:55:40 73° SE 10:13:45 10° ENE daylight
18 Apr - 11:59:39 10° W 12:13:31 50° NNW 12:32:45 10° NE daylight
18 Apr - 14:21:05 10° WNW 14:35:13 24° NNW 14:49:47 10° NNE daylight
18 Apr - 16:49:00 10° NW 16:59:33 16° N 17:08:29 10° NNE daylight
18 Apr - 19:10:15 10° NNW 19:21:17 23° NNE 19:28:55 10° ENE visible
18 Apr - 21:27:23 10° NW 21:38:23 59° NNE 21:44:32 10° ESE visible
18 Apr - 23:46:08 10° W 23:51:33 23° SW 23:55:27 10° SSE night (unlit)
19 Apr - 08:46:03 10° SW 08:54:53 51° SE 09:10:04 10° ENE daylight
19 Apr - 10:58:57 10° WSW 11:11:12 63° NNW 11:30:26 10° NE daylight
19 Apr - 13:17:25 10° WNW 13:31:33 30° NNW 13:48:03 10° NNE daylight
19 Apr - 15:43:40 10° NW 15:55:34 18° N 16:06:21 10° NNE daylight
19 Apr - 18:07:29 10° NNW 18:18:58 20° NNE 18:27:32 10° NE visible
19 Apr - 20:25:24 10° NW 20:37:46 43° NNE 20:44:57 10° E visible
19 Apr - 22:43:32 10° WNW 22:52:12 48° SW 22:57:23 10° SE visible
20 Apr - 07:47:37 10° SSW 07:54:38 31° SE 08:05:49 10° E daylight
20 Apr - 09:58:59 10° WSW 10:09:32 81° NW 10:27:42 10° NE daylight
20 Apr - 12:15:04 10° W 12:28:21 37° NNW 12:46:02 10° NE daylight
20 Apr - 14:38:32 10° NW 14:51:20 20° N 15:04:08 10° NNE daylight
20 Apr - 17:04:03 10° NNW 17:15:54 19° N 17:25:26 10° NE daylight
20 Apr - 19:23:12 10° NW 19:36:30 34° NNE 19:44:49 10° E visible
20 Apr - 21:41:08 10° WNW 21:52:31 83° SW 21:58:44 10° SE visible
21 Apr - 00:03:17 10° WSW 00:05:17 11° SW 00:07:04 10° SSW night (unlit)
21 Apr - 06:50:09 10° S 06:54:39 17° SE 07:00:38 10° ESE daylight
21 Apr - 08:59:38 10° SW 09:08:33 75° SE 09:24:37 10° ENE daylight
21 Apr - 11:13:48 10° W 11:25:44 46° NNW 11:43:44 10° NE daylight
21 Apr - 13:34:17 10° WNW 13:47:17 23° NNW 14:01:49 10° NNE daylight
21 Apr - 16:00:01 10° NW 16:12:07 18° N 16:22:44 10° NE daylight
21 Apr - 18:20:43 10° NNW 18:34:33 28° NNE 18:44:01 10° ENE visible
21 Apr - 20:38:45 10° NW 20:52:14 67° NNE 20:59:36 10° ESE visible
21 Apr - 22:58:44 10° W 23:05:48 26° SW 23:10:33 10° SSE visible
